Flag for Switzerland Weather past 2 weeks in Biel, Switzerland

Now
33 °F

Chilly.


Feels Like: 27 °F
Forecast: 24 / 33 °F
Wind: 6 mph from West

Location: Grenchen

Current Time: Dec 27, 2014 at 12:32:34 PM

Latest Report: Dec 27, 2014 at 11:00 AM


Visibility: N/A

Pressure: 29.71 "Hg

Humidity: 100%

Dew point: 32 °F

Location of BielLocation

Historic Weather in Biel — Graph

°F

Biel temperature yesterday

Maximum temperature yesterday: 40 °F (at 2:00 PM)
Minimum temperature yesterday: 29 °F (at 11:00 PM)
Average temperature yesterday: 34 °F

Past Weeks' High & Low Weather Summary

 TemperatureHumidityPressure
High53 °F (Dec 19, 1:00 PM)100% (Dec 13, 9:00 AM)30.64 "Hg (Dec 13, 9:00 AM)
Low24 °F (Dec 23, 6:00 AM)57% (Dec 25, 7:00 PM)29.71 "Hg (Dec 27, 11:00 AM)
Average39 °F91%30.25 "Hg
* Reported Dec 12 11:00 AM — Dec 27 11:00 AM, Biel, Weather by CustomWeather, © 2014

Note: Actual official high and low records may vary slightly from our data, if they occured in-between our weather recording intervals... More about our weather records

Advertising

Biel weather history for previous 24 hours

 ConditionsComfort  
Time TempWeatherWind HumidityBarometerVisibility
11:00 AM
Dec 27
33 °FChilly.6 mph100%29.71 "HgN/A
10:00 AM33 °FChilly.8 mph100%29.72 "HgN/A
9:00 AM32 °FChilly.8 mph99%29.77 "HgN/A
8:00 AM33 °FChilly.14 mph100%29.81 "HgN/A
7:00 AM33 °FChilly.16 mph100%29.87 "HgN/A
6:00 AM32 °FChilly.15 mph99%29.93 "HgN/A
5:00 AM29 °FChilly.3 mph99%30.03 "HgN/A
4:00 AM29 °FChilly.3 mph99%30.10 "HgN/A
3:00 AM28 °FChilly.1 mph98%30.16 "HgN/A
2:00 AM28 °FChilly.1 mph96%30.21 "HgN/A
1:00 AM28 °FChilly.1 mph99%30.25 "HgN/A
12:00 AM28 °FChilly.1 mph98%30.29 "HgN/A
11:00 PM
Dec 26
29 °FChilly.1 mph95%30.33 "HgN/A
10:00 PM31 °FChilly.No wind95%30.36 "HgN/A
9:00 PM31 °FChilly.2 mph91%30.40 "HgN/A
8:00 PM32 °FChilly.1 mph86%30.41 "HgN/A
7:00 PM34 °FChilly.3 mph83%30.41 "HgN/A
6:00 PM34 °FChilly.3 mph84%30.42 "HgN/A
5:00 PM37 °FChilly.5 mph73%30.42 "HgN/A
4:00 PM38 °FChilly.7 mph70%30.43 "HgN/A
3:00 PM39 °FChilly.7 mph66%30.43 "HgN/A
2:00 PM40 °FChilly.6 mph66%30.44 "HgN/A
1:00 PM39 °FChilly.9 mph74%30.45 "HgN/A
12:00 PM39 °FChilly.6 mph78%30.48 "HgN/A
Weather by CustomWeather, © 2014

See weather overviewHow to use our weather pages